CDT,Max TemperatureF,Mean TemperatureF,Min TemperatureF,Max Dew PointF,MeanDew PointF,Min DewpointF,Max Humidity, Mean Humidity, Min Humidity, Max Sea Level PressureIn, Mean Sea Level PressureIn, Min Sea Level PressureIn, Max VisibilityMiles, Mean VisibilityMiles, Min VisibilityMiles, Max Wind SpeedMPH, Mean Wind SpeedMPH, Max Gust SpeedMPH,PrecipitationIn, CloudCover, Events, WindDirDegrees
2011-10-1,71,54,37,39,33,21,87,56,15,30.34,30.27,30.22,10,10,7,9,2,,0.00,0,,146
2011-10-2,77,56,35,43,35,25,87,55,14,30.28,30.22,30.15,10,10,10,12,2,17,0.00,1,,175
2011-10-3,82,60,37,43,35,25,87,50,12,30.22,30.18,30.13,10,10,7,13,2,17,0.00,1,,154
2011-10-4,89,72,55,45,38,32,59,34,13,30.17,30.12,30.05,10,10,10,16,6,22,0.00,1,,177
2011-10-5,84,67,50,46,36,18,76,40,8,30.13,30.08,30.01,10,10,7,18,4,28,0.00,1,,168
2011-10-6,84,68,53,45,39,30,67,39,14,30.05,29.99,29.91,10,10,10,25,8,39,0.00,1,,155
2011-10-7,86,76,66,57,54,45,56,45,35,30.03,29.97,29.93,10,10,10,26,18,36,0.00,4,,168
2011-10-8,80,72,64,64,54,48,78,55,42,30.09,30.05,30.01,10,10,10,26,12,32,0.00,4,Rain,172
2011-10-9,82,71,60,55,51,43,77,51,26,30.17,30.12,30.05,10,10,10,18,8,25,0.00,2,,150
2011-10-10,71,60,48,57,52,43,88,73,50,30.08,30.02,29.95,10,9,1,12,2,17,0.02,5,Rain,212
2011-10-11,78,63,48,59,49,41,88,66,26,29.96,29.88,29.79,10,7,0,16,4,23,0.00,5,Fog,160
2011-10-12,68,62,55,61,54,48,88,76,59,29.78,29.72,29.68,10,9,2,16,2,23,0.35,5,Rain,317
2011-10-13,73,60,48,48,39,25,87,53,16,29.84,29.79,29.75,10,10,10,23,10,34,0.00,1,,303
2011-10-14,64,53,42,39,31,18,71,47,18,29.97,29.91,29.82,10,10,10,23,10,31,0.00,1,,292
2011-10-15,71,52,33,37,28,16,81,48,13,30.07,30.00,29.83,10,10,7,18,5,25,0.00,1,,222
2011-10-16,64,56,48,46,37,21,76,53,20,30.06,29.94,29.72,10,10,10,15,7,24,0.00,1,,335
2011-10-17,50,42,33,45,37,28,87,79,71,30.07,30.02,29.98,10,10,4,9,1,,0.13,5,Rain,296
2011-10-18,53,48,42,39,31,18,71,54,26,30.06,30.02,29.96,10,10,10,21,10,29,0.00,3,,326
2011-10-19,51,40,30,28,24,21,75,55,35,30.09,30.05,30.03,10,10,10,17,10,24,0.00,2,,334
2011-10-20,55,44,32,32,27,23,81,59,29,30.06,30.03,30.00,10,10,7,14,8,23,0.00,1,,315
2011-10-21,69,46,24,36,27,19,86,58,20,30.13,30.08,30.03,10,9,4,14,2,20,0.00,0,,208
2011-10-22,64,50,35,52,40,30,88,72,42,30.13,30.09,30.03,10,10,3,7,1,,0.03,3,Rain,34
2011-10-23,77,57,37,52,40,34,93,62,21,30.03,29.95,29.86,10,7,0,16,3,20,0.00,4,Fog,246
2011-10-24,78,56,33,43,33,27,87,55,15,30.12,30.04,29.87,10,10,10,15,3,18,0.00,0,,178
2011-10-25,78,66,53,52,45,39,62,47,28,29.93,29.76,29.68,10,10,10,24,14,30,0.00,1,,222
2011-10-26,53,48,42,39,36,34,76,63,51,30.11,30.06,29.99,10,10,10,14,10,20,0.00,4,,345
2011-10-27,57,44,30,36,27,14,86,54,18,30.16,30.12,30.10,10,10,4,10,5,16,0.00,2,,310
2011-10-28,59,42,26,28,18,-6,86,50,8,30.18,30.16,30.14,10,10,7,20,4,26,0.00,0,,313
2011-10-29,62,42,23,28,19,16,80,45,16,30.15,30.02,29.85,10,10,10,16,3,20,0.00,1,,167
2011-10-30,60,53,46,36,25,12,66,35,15,30.02,29.95,29.84,10,10,10,22,12,34,0.00,2,,290
2011-10-31,64,44,23,28,19,10,80,50,12,30.10,30.04,29.95,10,10,7,13,2,17,0.00,0,,168